Gwinn, MI

11:31 PM EST on December 15, 2017 (GMT -0500)
Sawyer International

Weather History for KSAW - March, 2014

Change the Weather History Date:

Wednesday, March 19, 2014

  Actual Average (KESC) Record (KESC)
Temperature  
Mean Temperature 28 °F -  
Max Temperature 30 °F 36 °F 57 °F (2012)
Min Temperature 26 °F 18 °F -15 °F (1989)
Degree Days  
Heating Degree Days 37    
Moisture  
Dew Point 25 °F    
Average Humidity 87    
Maximum Humidity 93    
Minimum Humidity 78    
Precipitation  
Precipitation 0.00 in - - ()
Sea Level Pressure  
Sea Level Pressure 29.73 in    
Wind  
Wind Speed 7 mph (NE)    
Max Wind Speed 14 mph    
Max Gust Speed 17 mph    
Visibility 6 miles    
Events Snow    
Averages and records for this station are not official NWS values.
T = Trace of Precipitation, MM = Missing Value Source: NWS Daily Summary

Daily Weather History Graph

Daily Weather History Graph

Search for Another Location

Airport or City:

Trip Planner

Search our weather history database for the weather conditions in past years. The results will help you decide how hot, cold, wet, or windy it might be!

Date:

Astronomy

Mar. 19, 2014 Rise Set
Actual Time 7:54 AM EDT 8:00 PM EDT
Civil Twilight 7:24 AM EDT 8:30 PM EDT
Nautical Twilight 6:49 AM EDT 9:06 PM EDT
Astronomical Twilight 6:13 AM EDT 9:42 PM EDT
Moon 11:31 PM EDT (3/19) 9:09 AM EDT (3/19)
Length of Visible Light 13h 06m
Length of Day
12h 06m
Waning Gibbous, 91% of the Moon is Illuminated
Mar 19
Waning Gibbous
Mar 23
Last Quarter
Mar 30
New
Apr 7
First Quarter
Apr 15
Full

Hourly Weather History & Observations

Time (EDT) Temp. Windchill Dew Point Humidity Pressure Visibility Wind Dir Wind Speed Gust Speed Precip Events Conditions
12:16 AM 29.3 °F 23.2 °F 23.9 °F 80% 29.87 in 10.0 mi ESE 5.8 mph - N/A   Overcast
12:36 AM 29.7 °F 23.7 °F 23.5 °F 78% 29.87 in 10.0 mi ESE 5.8 mph - N/A   Overcast
12:56 AM 29.7 °F 23.7 °F 23.5 °F 78% 29.87 in 10.0 mi ESE 5.8 mph - N/A   Overcast
1:16 AM 29.3 °F 24.3 °F 23.4 °F 78% 29.87 in 10.0 mi SE 4.6 mph - N/A   Overcast
1:37 AM 29.3 °F 24.3 °F 23.5 °F 79% 29.85 in 10.0 mi ESE 4.6 mph - N/A   Overcast
1:56 AM 29.1 °F 24.1 °F 23.5 °F 80% 29.84 in 10.0 mi ESE 4.6 mph - N/A   Overcast
2:16 AM 28.4 °F 23.3 °F 23.7 °F 83% 29.84 in 10.0 mi SE 4.6 mph - N/A   Overcast
2:37 AM 28.4 °F 22.2 °F 23.9 °F 83% 29.82 in 10.0 mi East 5.8 mph - N/A   Overcast
2:56 AM 28.4 °F 23.3 °F 23.9 °F 83% 29.82 in 10.0 mi ESE 4.6 mph - N/A   Overcast
3:16 AM 28.4 °F 24.6 °F 24.3 °F 84% 29.81 in 10.0 mi ESE 3.5 mph - N/A   Overcast
3:37 AM 28.4 °F 23.3 °F 24.6 °F 86% 29.79 in 10.0 mi East 4.6 mph - N/A   Overcast
3:56 AM 28.4 °F 22.2 °F 24.6 °F 86% 29.77 in 10.0 mi East 5.8 mph - N/A   Overcast
4:17 AM 28.4 °F 22.2 °F 24.8 °F 86% 29.75 in 10.0 mi ENE 5.8 mph - N/A   Overcast
4:36 AM 28.4 °F 24.6 °F 24.6 °F 86% 29.75 in 10.0 mi NE 3.5 mph - N/A   Overcast
4:56 AM 28.2 °F 23.1 °F 24.6 °F 86% 29.74 in 10.0 mi NE 4.6 mph - N/A   Overcast
5:17 AM 27.3 °F 20.9 °F 24.4 °F 89% 29.73 in 10.0 mi NNE 5.8 mph - N/A   Overcast
5:36 AM 27.3 °F 23.4 °F 24.4 °F 89% 29.72 in 10.0 mi ENE 3.5 mph - N/A   Overcast
5:56 AM 27.5 °F 22.2 °F 24.6 °F 89% 29.72 in 10.0 mi ENE 4.6 mph - N/A   Overcast
6:50 AM 26.6 °F 21.2 °F 24.8 °F 93% 29.71 in 10.0 mi NNE 4.6 mph - N/A   Overcast
7:55 AM 26.6 °F 16.8 °F 24.8 °F 93% 29.70 in 1.8 mi NNE 10.4 mph - N/A Snow Light Snow
8:50 AM 26.6 °F 16.8 °F 24.8 °F 93% 29.68 in 1.8 mi NE 10.4 mph - N/A Snow Light Snow
9:50 AM 26.6 °F 16.2 °F 24.8 °F 93% 29.67 in 1.8 mi NNE 11.5 mph - N/A Snow Light Snow
10:50 AM 28.4 °F 18.5 °F 24.8 °F 86% 29.65 in 1.8 mi NE 11.5 mph - N/A Snow Light Snow
11:50 AM 28.4 °F 19.1 °F 24.8 °F 86% 29.65 in 0.8 mi NNE 10.4 mph - N/A Snow Light Snow
12:50 PM 28.4 °F 19.1 °F 26.6 °F 93% 29.64 in 0.8 mi NNE 10.4 mph - N/A Snow Light Snow
1:50 PM 28.4 °F 18.5 °F 24.8 °F 86% 29.63 in 1.2 mi NNE 11.5 mph - N/A Snow Light Snow
2:50 PM 28.4 °F 18.0 °F 26.6 °F 93% 29.63 in - North 12.7 mph - N/A Snow Light Snow
2:55 PM 28.4 °F 18.0 °F 26.6 °F 93% 29.63 in 1.8 mi North 12.7 mph - N/A Snow Light Snow
3:50 PM 30.2 °F 19.8 °F 26.6 °F 86% 29.62 in 2.0 mi North 13.8 mph - N/A Snow Light Snow
4:46 PM 30.2 °F 19.8 °F 26.6 °F 86% 29.63 in 1.5 mi North 13.8 mph 17.3 mph N/A Snow Light Snow
5:45 PM 30.2 °F 21.3 °F 28.4 °F 93% 29.65 in 1.0 mi NNW 10.4 mph 17.3 mph N/A Snow Light Snow
6:45 PM 30.2 °F 21.9 °F 28.4 °F 93% 29.67 in 1.8 mi NNW 9.2 mph 16.1 mph N/A Snow Light Snow
7:45 PM 30.2 °F 21.9 °F 26.6 °F 86% 29.69 in 1.8 mi NNW 9.2 mph - N/A Snow Light Snow
8:45 PM 28.4 °F 18.0 °F 26.6 °F 93% 29.71 in 4.0 mi NW 12.7 mph - N/A Snow Light Snow
9:45 PM 28.4 °F 19.1 °F 24.8 °F 86% 29.72 in 5.0 mi NW 10.4 mph 16.1 mph N/A Snow Light Snow
10:16 PM 28.2 °F 18.3 °F 24.8 °F 87% 29.73 in 10.0 mi NW 11.5 mph - N/A   Overcast
10:36 PM 28.2 °F 18.9 °F 24.8 °F 87% 29.73 in 10.0 mi NW 10.4 mph - N/A   Overcast
10:57 PM 28.2 °F 18.9 °F 24.8 °F 87% 29.74 in 4.0 mi NW 10.4 mph 16.1 mph N/A Snow Light Snow
11:16 PM 28.2 °F 19.5 °F 25.2 °F 88% 29.74 in 5.0 mi NW 9.2 mph - N/A Snow Light Snow
11:36 PM 27.9 °F 19.1 °F 25.0 °F 89% 29.74 in 7.0 mi NW 9.2 mph - N/A   Overcast
11:57 PM 27.9 °F 17.3 °F 24.8 °F 88% 29.74 in 7.0 mi NNW 12.7 mph 17.3 mph N/A   Overcast